Location: Bremen
(53.0833°N, 8.8000°E)
Time: 13:05:51
(UTC+02:00)

ISS - Pass Details

Date: 29 April 2025
Orbit: 416 x 419 km, 51.6° (Epoch: 14 May)

Event Time Altitude Azimuth Distance (km) Brightness Sun altitude
Exits shadow 03:46:34 34° 186° (S) 706 -3.1 -15.6°
Maximum altitude 03:47:12 38° 158° (SSE) 654 -3.1 -15.6°
Drops below altitude 10° 03:50:20 10° 88° (E) 1,498 -0.4 -15.3°
Sets 03:52:31 0° 81° (E) 2,364 0.8 -15.1°
